When you browse on this site, cookies collect data to enhance your experience and personalize the content and advertising you see.
Visit our Privacy Policy to learn more. By continuing to use the site, you agree to this use of cookies and data.
  • In Denmark
  • List of Countries
  • For 7 days
  • Water Temperature
  • Satellite Maps
  • Weather Map
  • Weather Widgets
  • user-avatar
    Login

    Hourly Weather Coleraine

    Today, 22 April, Monday

    Time Temperature Precipitation Wind Pressure Humidity
    00:00 +11°C° 0 mm 6 mps 753 mmHg 87%
    01:00 +10°C° 0 mm 6 mps 753 mmHg 85%
    02:00 +9°C° 0 mm 6 mps 752 mmHg 82%
    03:00 +8°C° 0 mm 5 mps 751 mmHg 80%
    04:00 +8°C° 0 mm 5 mps 751 mmHg 80%
    05:00 +8°C° 0 mm 5 mps 751 mmHg 81%
    06:00 +8°C° 0 mm 6 mps 751 mmHg 78%
    07:00 +10°C° 0 mm 6 mps 751 mmHg 75%
    08:00 +12°C° 0 mm 7 mps 751 mmHg 71%
    09:00 +15°C° 0 mm 7 mps 750 mmHg 68%
    10:00 +16°C° 0 mm 7 mps 750 mmHg 64%
    11:00 +17°C° 0 mm 8 mps 750 mmHg 60%
    12:00 +18°C° 0 mm 8 mps 750 mmHg 56%
    13:00 +18°C° 0 mm 8 mps 750 mmHg 57%
    14:00 +18°C° 0 mm 7 mps 749 mmHg 58%
    15:00 +18°C° 0 mm 7 mps 749 mmHg 58%
    16:00 +17°C° 0 mm 7 mps 748 mmHg 62%
    17:00 +16°C° 0 mm 6 mps 748 mmHg 65%
    18:00 +16°C° 0 mm 5 mps 748 mmHg 68%
    19:00 +15°C° 0 mm 5 mps 748 mmHg 66%
    20:00 +14°C° 0 mm 5 mps 748 mmHg 65%
    21:00 +13°C° 0 mm 4 mps 748 mmHg 63%
    22:00 +13°C° 0 mm 5 mps 748 mmHg 69%
    23:00 +12°C° 0 mm 5 mps 748 mmHg 75%

    Tomorrow, 23 April, Tuesday

    Time Temperature Precipitation Wind Pressure Humidity
    00:00 +12°C° 0 mm 5 mps 748 mmHg 81%
    01:00 +10°C° 0 mm 5 mps 747 mmHg 85%
    02:00 +10°C° 0 mm 5 mps 747 mmHg 89%
    03:00 +10°C° 0 mm 4 mps 747 mmHg 92%
    04:00 +10°C° 0 mm 4 mps 747 mmHg 93%
    05:00 +10°C° 0 mm 4 mps 747 mmHg 94%
    06:00 +10°C° 0 mm 4 mps 747 mmHg 94%
    07:00 +11°C° 0.2 mm 4 mps 747 mmHg 94%
    08:00 +11°C° 0.2 mm 3 mps 747 mmHg 93%
    09:00 +12°C° 0.2 mm 3 mps 747 mmHg 92%
    10:00 +13°C° 0.1 mm 4 mps 747 mmHg 88%
    11:00 +14°C° 0.1 mm 5 mps 746 mmHg 83%
    12:00 +15°C° 0.1 mm 6 mps 746 mmHg 78%
    13:00 +16°C° 0 mm 6 mps 746 mmHg 75%
    14:00 +17°C° 0 mm 7 mps 745 mmHg 72%
    15:00 +18°C° 0 mm 7 mps 745 mmHg 69%
    16:00 +17°C° 0 mm 7 mps 745 mmHg 71%
    17:00 +17°C° 0 mm 7 mps 744 mmHg 72%
    18:00 +16°C° 0 mm 7 mps 744 mmHg 74%
    19:00 +15°C° 0 mm 7 mps 744 mmHg 76%
    20:00 +14°C° 0 mm 7 mps 744 mmHg 78%
    21:00 +12°C° 0 mm 7 mps 745 mmHg 80%
    22:00 +12°C° 0 mm 7 mps 744 mmHg 79%
    23:00 +11°C° 0 mm 7 mps 744 mmHg 79%

    Day after tomorrow, 24 April, Wednesday

    Time Temperature Precipitation Wind Pressure Humidity
    00:00 +10°C° 0 mm 7 mps 744 mmHg 79%
    01:00 +10°C° 0 mm 7 mps 744 mmHg 81%
    02:00 +9°C° 0 mm 7 mps 743 mmHg 82%
    03:00 +9°C° 0 mm 7 mps 742 mmHg 84%
    04:00 +9°C° 0 mm 7 mps 742 mmHg 85%
    05:00 +9°C° 0 mm 7 mps 742 mmHg 87%
    06:00 +9°C° 0 mm 7 mps 741 mmHg 88%
    07:00 +10°C° 0 mm 7 mps 741 mmHg 87%
    08:00 +10°C° 0 mm 8 mps 740 mmHg 86%
    09:00 +11°C° 0 mm 8 mps 740 mmHg 85%
    10:00 +11°C° 0 mm 8 mps 740 mmHg 84%
    11:00 +12°C° 0 mm 8 mps 740 mmHg 83%
    12:00 +12°C° 0 mm 8 mps 740 mmHg 83%
    13:00 +11°C° 0.4 mm 7 mps 740 mmHg 86%
    14:00 +10°C° 0.4 mm 6 mps 740 mmHg 89%
    15:00 +9°C° 0.4 mm 5 mps 740 mmHg 92%
    16:00 +9°C° 0.5 mm 5 mps 740 mmHg 92%
    17:00 +8°C° 0.5 mm 5 mps 740 mmHg 93%
    18:00 +8°C° 0.5 mm 5 mps 740 mmHg 93%
    19:00 +8°C° 0 mm 5 mps 741 mmHg 94%
    20:00 +8°C° 0 mm 5 mps 741 mmHg 94%
    21:00 +7°C° 0 mm 5 mps 741 mmHg 94%
    22:00 +7°C° 0 mm 5 mps 742 mmHg 94%
    23:00 +7°C° 0 mm 5 mps 742 mmHg 94%

    25 April, Thursday

    Time Temperature Precipitation Wind Pressure Humidity
    00:00 +7°C° 0 mm 5 mps 742 mmHg 94%
    01:00 +7°C° 0 mm 5 mps 742 mmHg 94%
    02:00 +7°C° 0 mm 6 mps 741 mmHg 94%
    03:00 +7°C° 0 mm 6 mps 741 mmHg 94%
    04:00 +7°C° 0.2 mm 6 mps 740 mmHg 94%
    05:00 +6°C° 0.2 mm 7 mps 740 mmHg 94%
    06:00 +8°C° 0.2 mm 7 mps 740 mmHg 94%
    07:00 +8°C° 0.3 mm 7 mps 740 mmHg 93%
    08:00 +8°C° 0.3 mm 6 mps 740 mmHg 92%
    09:00 +8°C° 0.3 mm 6 mps 740 mmHg 91%
    10:00 +9°C° 0.3 mm 6 mps 740 mmHg 88%
    11:00 +10°C° 0.3 mm 6 mps 740 mmHg 84%
    12:00 +10°C° 0.3 mm 6 mps 740 mmHg 80%
    13:00 +11°C° 0.1 mm 6 mps 741 mmHg 75%
    14:00 +13°C° 0.1 mm 6 mps 741 mmHg 69%
    15:00 +13°C° 0.1 mm 6 mps 741 mmHg 63%
    16:00 +13°C° 0.1 mm 5 mps 741 mmHg 68%
    17:00 +12°C° 0.1 mm 5 mps 741 mmHg 74%
    18:00 +11°C° 0.1 mm 4 mps 741 mmHg 79%
    19:00 +10°C° 0 mm 4 mps 742 mmHg 84%
    20:00 +9°C° 0 mm 3 mps 742 mmHg 89%
    21:00 +7°C° 0 mm 3 mps 743 mmHg 93%
    22:00 +7°C° 0 mm 3 mps 743 mmHg 94%
    23:00 +7°C° 0 mm 3 mps 744 mmHg 95%

    26 April, Friday

    Time Temperature Precipitation Wind Pressure Humidity
    00:00 +5°C° 0 mm 4 mps 744 mmHg 96%
    01:00 +6°C° 0.6 mm 4 mps 745 mmHg 96%
    02:00 +6°C° 0.6 mm 4 mps 745 mmHg 96%
    03:00 +7°C° 0.6 mm 4 mps 746 mmHg 96%
    04:00 +7°C° 0.2 mm 5 mps 747 mmHg 96%
    05:00 +7°C° 0.2 mm 5 mps 748 mmHg 95%
    06:00 +7°C° 0.2 mm 5 mps 748 mmHg 95%
    07:00 +7°C° 0.2 mm 6 mps 750 mmHg 92%
    08:00 +7°C° 0.2 mm 6 mps 751 mmHg 88%
    09:00 +8°C° 0.2 mm 7 mps 752 mmHg 85%
    10:00 +8°C° 0 mm 6 mps 752 mmHg 78%
    11:00 +8°C° 0 mm 5 mps 753 mmHg 71%
    12:00 +10°C° 0 mm 4 mps 753 mmHg 63%
    13:00 +10°C° 0 mm 4 mps 753 mmHg 62%
    14:00 +10°C° 0 mm 3 mps 753 mmHg 61%
    15:00 +10°C° 0 mm 3 mps 753 mmHg 60%
    16:00 +8°C° 0.1 mm 5 mps 752 mmHg 66%
    17:00 +7°C° 0.1 mm 8 mps 750 mmHg 72%
    18:00 +6°C° 0.1 mm 10 mps 749 mmHg 79%
    19:00 +4°C° 0.2 mm 11 mps 748 mmHg 80%
    20:00 +4°C° 0.2 mm 12 mps 747 mmHg 81%
    21:00 +3°C° 0.2 mm 13 mps 746 mmHg 83%
    22:00 +4°C° 0.1 mm 14 mps 746 mmHg 79%
    23:00 +4°C° 0.1 mm 14 mps 747 mmHg 74%

    27 April, Saturday

    Time Temperature Precipitation Wind Pressure Humidity
    00:00 +5°C° 0.1 mm 15 mps 747 mmHg 70%
    01:00 +5°C° 0.1 mm 14 mps 749 mmHg 69%
    02:00 +4°C° 0.1 mm 13 mps 750 mmHg 69%
    03:00 +4°C° 0.1 mm 13 mps 752 mmHg 68%
    04:00 +3°C° 0 mm 11 mps 752 mmHg 70%
    05:00 +3°C° 0 mm 10 mps 753 mmHg 71%
    06:00 +2°C° 0 mm 8 mps 754 mmHg 73%
    07:00 +4°C° 0 mm 8 mps 755 mmHg 69%
    08:00 +5°C° 0 mm 8 mps 755 mmHg 66%
    09:00 +6°C° 0 mm 8 mps 755 mmHg 62%
    10:00 +6°C° 0.2 mm 7 mps 755 mmHg 69%
    11:00 +7°C° 0.2 mm 6 mps 754 mmHg 75%
    12:00 +5°C° 0.2 mm 6 mps 754 mmHg 81%
    13:00 +7°C° 0.4 mm 6 mps 754 mmHg 83%
    14:00 +7°C° 0.4 mm 6 mps 754 mmHg 84%
    15:00 +8°C° 0.4 mm 6 mps 754 mmHg 86%
    16:00 +8°C° 0 mm 6 mps 754 mmHg 79%
    17:00 +8°C° 0 mm 6 mps 755 mmHg 72%
    18:00 +8°C° 0 mm 7 mps 755 mmHg 65%
    19:00 +7°C° 0 mm 6 mps 755 mmHg 68%
    20:00 +5°C° 0 mm 6 mps 756 mmHg 70%
    21:00 +5°C° 0 mm 5 mps 756 mmHg 73%
    22:00 +5°C° 0 mm 5 mps 756 mmHg 76%
    23:00 +5°C° 0 mm 5 mps 756 mmHg 78%
    Show more